Date String (YYYY-MM-DD hh:mm:ss) UTC,Instrument flags,absolute air pressure of the measurement (hPa),sample flow rate (lpm),inlet stack bypass flow (lpm),air temperature of the measurement (°C),ambient temperature measured by the external sensor (°C),aerosol sample conditioner tube jacket temperature (°C),OPC LED temperature (°C),internal box temperature (°C),relative humidity of the measurement (%),span deviation,mass concentration of particles derived from Lorenz-Mie calculation of OPC scattering (μg/m³),mass concentration of particles derived from Lorenz-Mie calculation of OPC scattering (μg/m³),mass concentration of particles derived from Lorenz-Mie calculation of OPC scattering (μg/m³)
DateTimeUTC,F1_M11,P_M11,Q1_M11,Q2_M11,T1_M11,T2_M11,T3_M11,T4_M11,T5_M11,U1_M11,ZSPAN_M11,X2_M11,X0_M11,X1_M11
2024-01-09 22:00:00,SystemResetWarning,0814.1,5.00,000.00,019.8,019.1,000.0,028.1,021.0,10.7,0000.0,0002.89,0007.85,0001.99
2024-01-09 22:01:00,SystemResetWarning,0814.0,5.00,000.00,019.8,019.2,000.0,028.1,021.0,10.8,0000.0,0002.94,0008.01,0002.04
2024-01-09 22:02:00,SystemResetWarning,0814.0,5.00,000.00,019.8,019.2,000.0,028.1,021.0,10.9,0000.0,0003.02,0007.97,0002.07
2024-01-09 22:03:00,SystemResetWarning,0814.1,4.99,000.00,019.8,019.2,000.0,028.1,021.0,10.9,0000.0,0003.08,0009.06,0002.09
2024-01-09 22:04:00,SystemResetWarning,0814.2,5.01,000.00,019.8,019.2,000.0,028.1,021.0,11.1,0000.0,0003.13,0010.03,0002.11
2024-01-09 22:05:00,SystemResetWarning,0814.2,5.00,000.00,019.8,019.2,000.0,028.1,020.9,11.2,0000.0,0003.17,0010.61,0002.10
2024-01-09 22:06:00,SystemResetWarning,0814.1,5.01,000.00,019.8,019.1,000.0,028.1,020.9,11.2,0000.0,0003.26,0011.48,0002.14
2024-01-09 22:07:00,SystemResetWarning,0814.2,5.01,000.00,019.8,019.1,000.0,028.1,021.0,11.3,0000.0,0003.36,0011.12,0002.23
2024-01-09 22:08:00,SystemResetWarning,0814.1,4.99,000.00,019.8,019.1,000.0,028.1,021.0,11.3,0000.0,0003.45,0011.16,0002.32
2024-01-09 22:09:00,SystemResetWarning,0813.9,5.00,000.00,019.8,019.1,000.0,028.1,021.0,11.4,0000.0,0003.53,0012.27,0002.43
2024-01-09 22:10:00,SystemResetWarning,0813.8,5.00,000.00,019.8,019.1,000.0,028.1,021.0,11.3,0000.0,0003.57,0012.94,0002.50
2024-01-09 22:11:00,SystemResetWarning,0814.0,4.99,000.00,019.8,019.1,000.0,028.1,021.1,11.3,0000.0,0003.65,0013.25,0002.54
2024-01-09 22:12:00,SystemResetWarning,0813.9,4.99,000.00,019.8,019.1,000.0,028.1,021.1,11.4,0000.0,0003.68,0013.65,0002.55
2024-01-09 22:13:00,SystemResetWarning,0813.9,5.00,000.00,019.8,019.1,000.0,028.1,021.1,11.4,0000.0,0003.73,0014.24,0002.57
2024-01-09 22:14:00,SystemResetWarning,0813.9,5.01,000.00,019.8,019.1,000.0,028.1,021.1,11.4,0000.0,0003.77,0013.47,0002.61
2024-01-09 22:15:00,SystemResetWarning,0814.0,5.01,000.00,019.8,019.1,000.0,028.1,021.1,11.5,0000.0,0003.74,0012.55,0002.59
2024-01-09 22:16:00,SystemResetWarning,0814.0,5.00,000.00,019.9,019.1,000.0,028.1,021.1,11.5,0000.0,0003.67,0012.37,0002.53
2024-01-09 22:17:00,SystemResetWarning,0814.0,5.00,000.00,019.9,019.1,000.0,028.2,021.1,11.4,0000.0,0003.56,0011.48,0002.43
2024-01-09 22:18:00,SystemResetWarning,0813.9,5.00,000.00,019.9,019.1,000.0,028.2,021.1,11.2,0000.0,0003.44,0011.16,0002.29
2024-01-09 22:19:00,SystemResetWarning,0813.9,5.00,000.00,019.9,019.1,000.0,028.2,021.2,11.1,0000.0,0003.30,0010.89,0002.11
2024-01-09 22:20:00,SystemResetWarning,0813.9,5.00,000.00,019.9,019.1,000.0,028.2,021.2,11.1,0000.0,0003.10,0009.66,0001.88
2024-01-09 22:21:00,SystemResetWarning,0813.8,5.00,000.00,019.9,019.1,000.0,028.2,021.2,11.1,0000.0,0002.83,0008.43,0001.69
2024-01-09 22:22:00,SystemResetWarning,0813.6,5.00,000.00,019.9,019.1,000.0,028.2,021.2,11.2,0000.0,0002.56,0008.01,0001.54
2024-01-09 22:23:00,SystemResetWarning,0813.7,4.99,000.00,019.9,019.0,000.0,028.2,021.1,11.0,0000.0,0002.27,0007.23,0001.39
2024-01-09 22:24:00,SystemResetWarning,0813.7,5.00,000.00,019.9,019.1,000.0,028.2,021.2,11.1,0000.0,0002.02,0005.78,0001.25
2024-01-09 22:25:00,SystemResetWarning,0813.6,4.99,000.00,019.9,019.1,000.0,028.2,021.2,11.1,0000.0,0001.76,0005.57,0001.10
2024-01-09 22:26:00,SystemResetWarning,0813.6,5.00,000.00,019.9,019.1,000.0,028.2,021.2,11.2,0000.0,0001.54,0005.25,0000.98
2024-01-09 22:27:00,SystemResetWarning,0813.5,5.00,000.00,019.9,019.1,000.0,028.2,021.2,11.2,0000.0,0001.42,0004.55,0000.90
2024-01-09 22:28:00,SystemResetWarning,0813.4,5.00,000.00,019.9,019.1,000.0,028.2,021.2,11.0,0000.0,0001.27,0003.82,0000.80
2024-01-09 22:29:00,SystemResetWarning,0813.5,5.00,000.00,019.9,019.1,000.0,028.2,021.2,11.0,0000.0,0001.13,0003.52,0000.71
2024-01-09 22:30:00,SystemResetWarning,0813.6,5.00,000.00,020.0,019.1,000.0,028.2,021.2,11.0,0000.0,0001.01,0003.32,0000.65
2024-01-09 22:31:00,SystemResetWarning,0813.7,5.00,000.00,020.0,019.1,000.0,028.2,021.2,11.0,0000.0,0000.94,0003.22,0000.60
2024-01-09 22:32:00,SystemResetWarning,0814.0,5.00,000.00,020.0,019.1,000.0,028.2,021.2,11.1,0000.0,0000.84,0003.52,0000.57
2024-01-09 22:33:00,SystemResetWarning,0813.9,5.00,000.00,020.0,019.0,000.0,028.2,021.2,11.0,0000.0,0000.82,0003.65,0000.53
2024-01-09 22:34:00,SystemResetWarning,0814.0,5.00,000.00,020.0,019.0,000.0,028.2,021.2,10.9,0000.0,0000.78,0003.51,0000.50
2024-01-09 22:35:00,SystemResetWarning,0814.0,5.00,000.00,020.0,019.1,000.0,028.2,021.2,10.8,0000.0,0000.73,0003.34,0000.47
2024-01-09 22:36:00,SystemResetWarning,0814.1,5.00,000.00,020.0,019.1,000.0,028.2,021.3,10.7,0000.0,0000.67,0002.46,0000.45
2024-01-09 22:37:00,SystemResetWarning,0814.1,5.00,000.00,020.0,019.2,000.0,028.2,021.3,10.6,0000.0,0000.65,0002.19,0000.43
2024-01-09 22:38:00,SystemResetWarning,0814.0,5.00,000.00,020.0,019.2,000.0,028.2,021.3,10.4,0000.0,0000.62,0002.30,0000.41
2024-01-09 22:39:00,SystemResetWarning,0813.9,5.00,000.00,020.0,019.2,000.0,028.2,021.3,10.4,0000.0,0000.61,0002.32,0000.40
2024-01-09 22:40:00,SystemResetWarning,0814.0,5.00,000.00,020.0,019.3,000.0,028.2,021.3,10.3,0000.0,0000.59,0002.27,0000.39
2024-01-09 22:41:00,SystemResetWarning,0813.9,5.00,000.00,020.0,019.3,000.0,028.3,021.4,10.3,0000.0,0000.56,0002.15,0000.39
2024-01-09 22:42:00,SystemResetWarning,0813.9,5.00,000.00,020.0,019.3,000.0,028.3,021.4,10.3,0000.0,0000.56,0002.12,0000.38
2024-01-09 22:43:00,SystemResetWarning,0813.9,5.00,000.00,020.0,019.3,000.0,028.3,021.4,10.3,0000.0,0000.54,0001.47,0000.38
2024-01-09 22:44:00,SystemResetWarning,0814.0,5.00,000.00,020.0,019.4,000.0,028.3,021.4,10.3,0000.0,0000.53,0001.76,0000.38
2024-01-09 22:45:00,SystemResetWarning,0814.0,5.00,000.00,020.0,019.4,000.0,028.3,021.4,10.2,0000.0,0000.54,0001.87,0000.38
2024-01-09 22:46:00,SystemResetWarning,0813.9,5.00,000.00,020.0,019.4,000.0,028.3,021.4,10.2,0000.0,0000.58,0002.00,0000.38
2024-01-09 22:47:00,SystemResetWarning,0813.9,5.00,000.00,020.1,019.4,000.0,028.3,021.4,10.2,0000.0,0000.60,0002.07,0000.38
2024-01-09 22:48:00,SystemResetWarning,0813.9,5.00,000.00,020.1,019.4,000.0,028.3,021.5,10.1,0000.0,0000.78,0002.76,0000.46
2024-01-09 22:49:00,SystemResetWarning,0814.0,5.00,000.00,020.1,019.4,000.0,028.3,021.4,10.1,0000.0,0001.28,0003.57,0000.70
2024-01-09 22:50:00,SystemResetWarning,0814.0,5.00,000.00,020.1,019.4,000.0,028.3,021.5,10.2,0000.0,0001.81,0005.04,0001.00
2024-01-09 22:51:00,SystemResetWarning,0813.9,5.00,000.00,020.1,019.4,000.0,028.3,021.5,10.2,0000.0,0002.53,0007.40,0001.34
2024-01-09 22:52:00,SystemResetWarning,0813.7,5.00,000.00,020.1,019.5,000.0,028.3,021.5,10.2,0000.0,0003.11,0008.59,0001.69
2024-01-09 22:53:00,SystemResetWarning,0813.7,5.00,000.00,020.1,019.5,000.0,028.4,021.5,10.2,0000.0,0003.56,0010.22,0002.08
2024-01-09 22:54:00,SystemResetWarning,0813.7,5.00,000.00,020.2,019.5,000.0,028.4,021.5,10.4,0000.0,0003.94,0011.89,0002.46
2024-01-09 22:55:00,SystemResetWarning,0813.7,5.00,000.00,020.2,019.5,000.0,028.4,021.5,10.4,0000.0,0004.34,0013.47,0002.83
2024-01-09 22:56:00,SystemResetWarning,0813.7,5.00,000.00,020.2,019.5,000.0,028.4,021.5,10.5,0000.0,0004.71,0014.80,0003.14
2024-01-09 22:57:00,SystemResetWarning,0813.6,5.00,000.00,020.2,019.5,000.0,028.4,021.5,10.6,0000.0,0005.05,0015.97,0003.34
2024-01-09 22:58:00,SystemResetWarning,0813.5,5.00,000.00,020.2,019.4,000.0,028.4,021.5,10.6,0000.0,0005.38,0018.33,0003.54
2024-01-09 22:59:00,SystemResetWarning,0813.5,5.00,000.00,020.2,019.4,000.0,028.4,021.5,10.5,0000.0,0005.59,0019.11,0003.68
